Location: Schommer Observatory
(40.5200°N, 74.4500°W)
Time: 07:46:58
(UTC-04:00)

ISS - Pass Details

Date: 20 May 2018
Orbit: 402 x 407 km, 51.6° (Epoch: 26 May)

Event Time Altitude Azimuth Distance (km) Brightness Sun altitude
Rises 21:40:58 0° 222° (SW) 2,306 0.0 -14.5°
Reaches altitude 10° 21:43:04 10° 217° (SW) 1,450 -1.1 -14.8°
Maximum altitude 21:46:14 54° 139° (SE) 496 -3.8 -15.2°
Drops below altitude 10° 21:49:26 10° 61° (ENE) 1,456 -1.2 -15.7°
Sets 21:51:32 0° 57° (ENE) 2,318 -0.1 -15.9°
